Location: ???????
(56.2167°N, 38.0500°E)
Time: 13:28:20
(UTC+00:00)

Cosmos 1302 Rocket - Pass Details

Date: 19 May 2025
Orbit: 752 x 772 km, 74.0° (Epoch: 20 June)

Event Time Altitude Azimuth Distance (km) Brightness Sun altitude
Rises 22:50:49 0° 331° (NNW) 3,226 7.9 -11.6°
Reaches altitude 10° 22:53:11 10° 331° (NNW) 2,299 7.1 -11.5°
Maximum altitude 22:58:25 90° 248° (WSW) 769 4.0 -11.3°
Drops below altitude 10° 23:03:39 10° 154° (SSE) 2,297 6.1 -11.0°
Enters shadow 23:05:53 - 154° (SSE) 3,174 6.8 -10.8°
